WQ206 YCIN-YPLM

Flight info

Callsign WQ206
Flight time N/A
Altitude 40000
Route DCT BRM J93 ONSLO DCT
Aircraft B748/H-SDE2E3FGHRWXYZ/LB1D1

Departure

Time N/A
Airport RAAF Base Curtin (YCIN)

Arrival

Time 2026-05-03 21:07
Airport Learmonth Airport (YPLM)
Time Latitude Longitude Altitude Speed Heading
2026-05-03 20:15 -19.79446 118.89573 40056 ft 414 kts 243°
2026-05-03 20:15 -19.82081 118.84167 40056 ft 414 kts 243°
2026-05-03 20:16 -19.84732 118.78734 40057 ft 415 kts 243°
2026-05-03 20:16 -19.87393 118.73282 40058 ft 415 kts 243°
2026-05-03 20:17 -19.90046 118.67847 40061 ft 414 kts 243°
2026-05-03 20:17 -19.92704 118.62403 40061 ft 415 kts 243°
2026-05-03 20:18 -19.95360 118.56965 40060 ft 415 kts 243°
2026-05-03 20:18 -19.98018 118.51524 40062 ft 415 kts 243°
2026-05-03 20:19 -20.00662 118.46111 40062 ft 415 kts 243°
2026-05-03 20:19 -20.03321 118.40672 40060 ft 415 kts 243°
2026-05-03 20:20 -20.05978 118.35235 40065 ft 414 kts 243°
2026-05-03 20:20 -20.08641 118.29788 40066 ft 414 kts 243°
2026-05-03 20:21 -20.11309 118.24333 40067 ft 414 kts 243°
2026-05-03 20:21 -20.13969 118.18896 40067 ft 414 kts 243°
2026-05-03 20:22 -20.16617 118.13486 40070 ft 414 kts 243°
2026-05-03 20:22 -20.19281 118.08042 40071 ft 414 kts 243°
2026-05-03 20:23 -20.21944 118.02598 40068 ft 414 kts 243°
2026-05-03 20:23 -20.24609 117.97156 40073 ft 414 kts 243°
2026-05-03 20:24 -20.27270 117.91725 40070 ft 414 kts 243°
2026-05-03 20:24 -20.29918 117.86323 40069 ft 414 kts 243°
2026-05-03 20:25 -20.32579 117.80894 40072 ft 414 kts 243°
2026-05-03 20:25 -20.35246 117.75456 40070 ft 413 kts 243°
2026-05-03 20:26 -20.37912 117.70021 40074 ft 413 kts 243°
2026-05-03 20:26 -20.40577 117.64588 40073 ft 413 kts 243°
2026-05-03 20:27 -20.43238 117.59166 40077 ft 413 kts 243°
2026-05-03 20:27 -20.45904 117.53736 40075 ft 413 kts 243°
2026-05-03 20:28 -20.48564 117.48317 40078 ft 412 kts 243°
2026-05-03 20:28 -20.51215 117.42917 40079 ft 412 kts 243°
2026-05-03 20:29 -20.53878 117.37493 40077 ft 412 kts 243°
2026-05-03 20:29 -20.56539 117.32067 40078 ft 412 kts 243°
2026-05-03 20:30 -20.59185 117.26677 40077 ft 412 kts 243°
2026-05-03 20:30 -20.61850 117.21252 40077 ft 412 kts 243°
2026-05-03 20:31 -20.64511 117.15837 40078 ft 412 kts 243°
2026-05-03 20:31 -20.67176 117.10414 40074 ft 412 kts 243°
2026-05-03 20:32 -20.69839 117.04993 40076 ft 412 kts 243°
2026-05-03 20:32 -20.72503 116.99575 40076 ft 411 kts 243°
2026-05-03 20:33 -20.75161 116.94169 40080 ft 411 kts 243°
2026-05-03 20:33 -20.77805 116.88793 40081 ft 411 kts 243°
2026-05-03 20:34 -20.80466 116.83382 40079 ft 411 kts 243°
2026-05-03 20:34 -20.83128 116.77966 40076 ft 410 kts 243°
2026-05-03 20:35 -20.85780 116.72573 40077 ft 410 kts 243°
2026-05-03 20:35 -20.88431 116.67181 40074 ft 410 kts 243°
2026-05-03 20:36 -20.91084 116.61783 40081 ft 409 kts 243°
2026-05-03 20:36 -20.93733 116.56392 40080 ft 409 kts 243°
2026-05-03 20:37 -20.96384 116.50997 40079 ft 410 kts 243°
2026-05-03 20:37 -20.99018 116.45643 40077 ft 408 kts 243°
2026-05-03 20:38 -21.01670 116.40249 40076 ft 409 kts 243°
2026-05-03 20:38 -21.04322 116.34852 39802 ft 411 kts 243°
2026-05-03 20:38 -21.05652 116.32133 39207 ft 412 kts 242°
2026-05-03 20:39 -21.06970 116.29411 38645 ft 414 kts 242°
2026-05-03 20:39 -21.08289 116.26661 38002 ft 414 kts 243°
2026-05-03 20:39 -21.09600 116.23916 37385 ft 412 kts 243°
2026-05-03 20:39 -21.10903 116.21186 36774 ft 410 kts 243°
2026-05-03 20:40 -21.12189 116.18496 36195 ft 408 kts 243°
2026-05-03 20:40 -21.13480 116.15807 35621 ft 405 kts 243°
2026-05-03 20:40 -21.14769 116.13134 35061 ft 402 kts 243°
2026-05-03 20:40 -21.16051 116.10483 34504 ft 399 kts 243°
2026-05-03 20:41 -21.17333 116.07846 33931 ft 396 kts 243°
2026-05-03 20:41 -21.18604 116.05242 33326 ft 393 kts 243°
2026-05-03 20:41 -21.19870 116.02653 32696 ft 391 kts 243°
2026-05-03 20:41 -21.21127 116.00086 32116 ft 388 kts 243°
2026-05-03 20:42 -21.22375 115.97540 31642 ft 384 kts 243°
2026-05-03 20:42 -21.23630 115.94985 31183 ft 397 kts 243°
2026-05-03 20:42 -21.24943 115.92307 30748 ft 410 kts 243°
2026-05-03 20:42 -21.26269 115.89604 30322 ft 410 kts 243°
2026-05-03 20:43 -21.27596 115.86896 29827 ft 410 kts 243°
2026-05-03 20:43 -21.28918 115.84199 29315 ft 407 kts 243°
2026-05-03 20:43 -21.30229 115.81525 28799 ft 404 kts 243°
2026-05-03 20:43 -21.31531 115.78867 28289 ft 401 kts 243°
2026-05-03 20:44 -21.32825 115.76221 27788 ft 399 kts 243°
2026-05-03 20:44 -21.34109 115.73593 27292 ft 397 kts 243°
2026-05-03 20:44 -21.35387 115.70976 26842 ft 394 kts 243°
2026-05-03 20:44 -21.36657 115.68375 26405 ft 393 kts 243°
2026-05-03 20:45 -21.37908 115.65811 25990 ft 392 kts 243°
2026-05-03 20:45 -21.39169 115.63223 25568 ft 391 kts 243°
2026-05-03 20:45 -21.40427 115.60641 25162 ft 390 kts 243°
2026-05-03 20:45 -21.41681 115.58066 24753 ft 388 kts 242°
2026-05-03 20:46 -21.42928 115.55505 24354 ft 387 kts 242°
2026-05-03 20:46 -21.44174 115.52944 23962 ft 386 kts 243°
2026-05-03 20:46 -21.45414 115.50394 23564 ft 385 kts 242°
2026-05-03 20:46 -21.46654 115.47843 23081 ft 384 kts 242°
2026-05-03 20:47 -21.47890 115.45293 22604 ft 384 kts 242°
2026-05-03 20:47 -21.49120 115.42749 22150 ft 384 kts 242°
2026-05-03 20:47 -21.50347 115.40201 21753 ft 383 kts 242°
2026-05-03 20:47 -21.51553 115.37691 21415 ft 384 kts 242°
2026-05-03 20:48 -21.52773 115.35142 21070 ft 383 kts 242°
2026-05-03 20:48 -21.53992 115.32591 20735 ft 384 kts 242°
2026-05-03 20:48 -21.55207 115.30039 20400 ft 384 kts 242°
2026-05-03 20:48 -21.56423 115.27478 20064 ft 384 kts 242°
2026-05-03 20:49 -21.57634 115.24923 19684 ft 385 kts 242°
2026-05-03 20:49 -21.58849 115.22354 19221 ft 385 kts 242°
2026-05-03 20:49 -21.60058 115.19787 18766 ft 385 kts 242°
2026-05-03 20:49 -21.61266 115.17216 18300 ft 386 kts 242°
2026-05-03 20:50 -21.62471 115.14648 17795 ft 384 kts 243°
2026-05-03 20:50 -21.63675 115.12095 17274 ft 380 kts 243°
2026-05-03 20:50 -21.64468 115.10420 16939 ft 378 kts 243°
2026-05-03 20:50 -21.65664 115.07917 16433 ft 374 kts 243°
2026-05-03 20:51 -21.66858 115.05441 15961 ft 371 kts 243°
2026-05-03 20:51 -21.68051 115.02988 15374 ft 370 kts 243°
2026-05-03 20:51 -21.69646 114.99746 14598 ft 369 kts 243°
2026-05-03 20:51 -21.70466 114.98095 14209 ft 369 kts 243°
2026-05-03 20:52 -21.71680 114.95672 13618 ft 368 kts 243°
2026-05-03 20:52 -21.72885 114.93285 12981 ft 367 kts 243°
2026-05-03 20:52 -21.74097 114.90902 12343 ft 357 kts 243°
2026-05-03 20:52 -21.75273 114.88607 11700 ft 344 kts 242°
2026-05-03 20:53 -21.76414 114.86396 11052 ft 332 kts 242°
2026-05-03 20:53 -21.77523 114.84266 10417 ft 321 kts 242°
2026-05-03 20:53 -21.78607 114.82198 9809 ft 314 kts 242°
2026-05-03 20:53 -21.79673 114.80175 9126 ft 308 kts 242°
2026-05-03 20:54 -21.80718 114.78184 8475 ft 303 kts 242°
2026-05-03 20:54 -21.82744 114.74299 7620 ft 290 kts 242°
2026-05-03 20:54 -21.83726 114.72404 7375 ft 288 kts 242°
2026-05-03 20:55 -21.84697 114.70523 7129 ft 286 kts 242°
2026-05-03 20:55 -21.85659 114.68655 6881 ft 284 kts 242°
2026-05-03 20:55 -21.86602 114.66817 6636 ft 283 kts 242°
2026-05-03 20:55 -21.87552 114.64964 6400 ft 282 kts 242°
2026-05-03 20:56 -21.88497 114.63116 6140 ft 281 kts 242°
2026-05-03 20:56 -21.89442 114.61274 5892 ft 280 kts 242°
2026-05-03 20:56 -21.90384 114.59439 5642 ft 279 kts 242°
2026-05-03 20:56 -21.91324 114.57616 5398 ft 278 kts 242°
2026-05-03 20:57 -21.92261 114.55801 5160 ft 277 kts 242°
2026-05-03 20:57 -21.93198 114.53993 4913 ft 276 kts 242°
2026-05-03 20:57 -21.94134 114.52190 4678 ft 275 kts 242°
2026-05-03 20:57 -21.95065 114.50396 4426 ft 274 kts 242°
2026-05-03 20:58 -21.95991 114.48608 4193 ft 273 kts 242°
2026-05-03 20:58 -21.96898 114.46846 3950 ft 272 kts 242°
2026-05-03 20:58 -21.97809 114.45069 3715 ft 271 kts 242°
2026-05-03 20:58 -21.98714 114.43294 3475 ft 269 kts 242°
2026-05-03 20:59 -21.99615 114.41520 3236 ft 268 kts 242°
2026-05-03 20:59 -22.00504 114.39762 3035 ft 265 kts 242°
2026-05-03 20:59 -22.01377 114.38030 2897 ft 259 kts 242°
2026-05-03 20:59 -22.02201 114.36327 2769 ft 254 kts 248°
2026-05-03 21:00 -22.02802 114.34584 2636 ft 249 kts 252°
2026-05-03 21:00 -22.03164 114.33394 2537 ft 246 kts 253°
2026-05-03 21:00 -22.03832 114.31085 2361 ft 241 kts 253°
2026-05-03 21:00 -22.04313 114.29379 2298 ft 234 kts 253°
2026-05-03 21:01 -22.04767 114.27755 2298 ft 217 kts 253°
2026-05-03 21:01 -22.05182 114.26273 2302 ft 195 kts 253°
2026-05-03 21:01 -22.05554 114.24937 2291 ft 181 kts 253°
2026-05-03 21:01 -22.05919 114.23629 2315 ft 181 kts 253°
2026-05-03 21:02 -22.06280 114.22332 2324 ft 181 kts 253°
2026-05-03 21:02 -22.06643 114.21036 2334 ft 181 kts 253°
2026-05-03 21:02 -22.07005 114.19739 2328 ft 181 kts 253°
2026-05-03 21:02 -22.07370 114.18439 2329 ft 181 kts 253°
2026-05-03 21:03 -22.07720 114.17133 2326 ft 181 kts 258°
2026-05-03 21:03 -22.07865 114.15801 2328 ft 181 kts 264°
2026-05-03 21:03 -22.07973 114.14517 2286 ft 163 kts 265°
2026-05-03 21:03 -22.08094 114.13308 2298 ft 162 kts 258°
2026-05-03 21:04 -22.08625 114.12269 2185 ft 161 kts 218°
2026-05-03 21:04 -22.09649 114.11881 2010 ft 154 kts 183°
2026-05-03 21:04 -22.10724 114.11753 2302 ft 156 kts 185°
2026-05-03 21:04 -22.11797 114.11454 2327 ft 159 kts 208°
2026-05-03 21:05 -22.12799 114.10918 2304 ft 165 kts 204°
2026-05-03 21:05 -22.13847 114.10379 2377 ft 166 kts 205°
2026-05-03 21:05 -22.14875 114.09847 2534 ft 162 kts 205°
2026-05-03 21:05 -22.15835 114.09368 2376 ft 152 kts 202°
2026-05-03 21:06 -22.16922 114.09180 1984 ft 163 kts 174°
2026-05-03 21:06 -22.18032 114.09331 1702 ft 159 kts 172°
2026-05-03 21:06 -22.19126 114.09355 1268 ft 157 kts 181°
2026-05-03 21:06 -22.20239 114.09255 676 ft 162 kts 184°
2026-05-03 21:07 -22.21339 114.09171 284 ft 155 kts 185°
2026-05-03 21:07 -22.22382 114.09096 39 ft 142 kts 185°
2026-05-03 21:07 -22.23206 114.09033 31 ft 88 kts 183°
2026-05-03 21:07 -22.23636 114.09001 33 ft 44 kts 185°
2026-05-03 21:08 -22.23913 114.08973 34 ft 33 kts 186°
2026-05-03 21:08 -22.24035 114.08904 33 ft 15 kts 209°
2026-05-03 21:08 -22.24057 114.08890 33 ft 0 kts 209°
2026-05-03 21:09 -22.24058 114.08890 33 ft 1 kts 209°
2026-05-03 21:09 -22.24075 114.08880 33 ft 6 kts 209°
2026-05-03 21:09 -22.24128 114.08845 33 ft 11 kts 212°
2026-05-03 21:09 -22.24212 114.08786 33 ft 17 kts 214°
2026-05-03 21:10 -22.24327 114.08709 34 ft 22 kts 205°
2026-05-03 21:10 -22.24488 114.08661 34 ft 27 kts 187°
2026-05-03 21:10 -22.24637 114.08650 35 ft 21 kts 180°
2026-05-03 21:10 -22.24713 114.08629 35 ft 3 kts 236°
2026-05-03 21:11 -22.24715 114.08610 35 ft 3 kts 271°
2026-05-03 21:11 -22.24714 114.08560 35 ft 10 kts 271°
2026-05-03 21:11 -22.24713 114.08524 35 ft 0 kts 271°